EW5622 Weather Reports


Display with metric or nautical units.
time (UTC)temp
F
wind
direction
speed
MPH
gust
MPH
rain 1hr
in
rain 24hr
in
rain mn
in
humidity
%
barometer
mb
20260509191803 66 0 0.0 0.0 0.00 0.00 0.00 80 1008.1
20260509190904 67 0 0.0 0.0 0.00 0.00 0.00 79 1007.1
20260509190006 67 0 0.0 0.0 0.00 0.00 0.00 79 1007.1
20260509185403 67 0 0.0 0.0 0.00 0.00 0.00 78 1008.1
20260509184503 68 0 0.0 0.0 0.00 0.00 0.00 78 1008.1
20260509183815 68 0 0.0 0.0 0.00 0.00 0.00 78 1007.1
20260509182914 69 0 0.0 0.0 0.00 0.00 0.00 77 1007.1
20260509181803 69 0 0.0 0.0 0.00 0.00 0.00 76 1007.1
20260509180903 69 0 0.0 0.0 0.00 0.00 0.00 76 1007.1
20260509180003 70 0 0.0 0.0 0.00 0.00 0.00 75 1007.1
20260509175403 70 0 0.0 0.0 0.00 0.00 0.00 75 1007.1
20260509174713 70 0 0.0 0.0 0.00 0.00 0.00 75 1007.1
20260509173814 70 0 0.0 0.0 0.00 0.00 0.00 75 1007.1
20260509172705 70 0 0.0 0.0 0.00 0.00 0.00 75 1007.1
20260509171804 70 0 0.0 0.0 0.00 0.00 0.00 75 1007.1
20260509170903 70 0 0.0 0.0 0.00 0.00 0.00 75 1007.1
20260509170004 70 337 0.0 1.0 0.00 0.00 0.00 74 1007.1
20260509165403 71 0 0.0 0.0 0.00 0.00 0.00 74 1007.1
20260509164505 71 0 0.0 0.0 0.00 0.00 0.00 74 1007.1
20260509163605 71 0 0.0 0.0 0.00 0.00 0.00 73 1007.1
20260509162704 72 22 0.0 3.0 0.00 0.00 0.00 72 1007.1
20260509161805 72 0 0.0 0.0 0.00 0.00 0.00 71 1007.1
20260509160903 73 0 0.0 0.0 0.00 0.00 0.00 71 1007.1
20260509160003 74 0 0.0 0.0 0.00 0.00 0.00 70 1007.1
20260509155403 74 0 0.0 0.0 0.00 0.00 0.00 70 1007.1
20260509154714 75 0 0.0 0.0 0.00 0.00 0.00 69 1007.1
20260509153814 75 315 0.0 3.0 0.00 0.00 0.00 70 1007.1
20260509152913 74 0 0.0 0.0 0.00 0.00 0.00 70 1007.1
20260509151803 75 0 0.0 0.0 0.00 0.00 0.00 72 1007.1
20260509150903 75 202 0.0 1.0 0.00 0.00 0.00 72 1007.1
20260509150005 74 252 0.0 2.0 0.00 0.00 0.00 72 1007.1
20260509145403 73 225 2.0 2.0 0.00 0.00 0.00 74 1007.1
20260509144503 72 274 0.0 3.0 0.00 0.00 0.00 75 1007.1
20260509143603 72 282 3.0 3.0 0.00 0.00 0.00 75 1007.1
20260509142705 72 274 0.0 2.0 0.00 0.00 0.00 74 1007.1
20260509141805 72 225 0.0 4.0 0.00 0.00 0.00 73 1007.1
20260509140903 73 0 0.0 0.0 0.00 0.00 0.00 73 1007.1
20260509140004 73 0 0.0 0.0 0.00 0.00 0.00 73 1007.1
20260509135614 73 0 0.0 0.0 0.00 0.00 0.00 73 1007.1
20260509134503 74 0 0.0 0.0 0.00 0.00 0.00 73 1007.1
20260509133603 75 0 0.0 0.0 0.00 0.00 0.00 73 1008.1
20260509132703 75 0 0.0 0.0 0.00 0.00 0.00 73 1008.1
20260509131805 75 0 0.0 0.0 0.00 0.00 0.00 74 1008.1
20260509130905 74 0 0.0 0.0 0.00 0.00 0.00 74 1008.1
20260509130003 74 0 0.0 0.0 0.00 0.00 0.00 75 1008.1
20260509125616 74 0 0.0 0.0 0.00 0.00 0.00 74 1008.1
20260509124504 73 90 0.0 1.0 0.00 0.00 0.00 74 1008.1
20260509123605 74 0 0.0 0.0 0.00 0.00 0.00 74 1008.1
20260509122703 74 0 0.0 0.0 0.00 0.00 0.00 74 1008.1
20260509121803 73 0 0.0 0.0 0.00 0.00 0.00 76 1008.1
20260509120903 73 0 0.0 0.0 0.00 0.00 0.00 75 1008.1
20260509120216 73 0 0.0 0.0 0.00 0.00 0.00 76 1008.1
20260509115403 73 0 0.0 0.0 0.00 0.00 0.00 77 1008.1
20260509114504 73 0 0.0 0.0 0.00 0.00 0.00 77 1008.1
20260509113605 72 0 0.0 0.0 0.00 0.00 0.00 78 1008.1
20260509112705 72 0 0.0 0.0 0.00 0.00 0.00 77 1008.1
20260509111803 72 0 0.0 0.0 0.00 0.00 0.00 77 1008.1
20260509110903 72 0 0.0 0.0 0.00 0.00 0.00 79 1008.1
20260509110215 72 67 0.0 1.0 0.00 0.00 0.00 79 1008.1
20260509105403 71 90 0.0 1.0 0.00 0.00 0.00 79 1008.1
20260509104505 71 90 0.0 1.0 0.00 0.00 0.00 79 1008.1
20260509103603 72 0 0.0 0.0 0.00 0.00 0.00 80 1008.1
20260509102703 72 0 0.0 0.0 0.00 0.00 0.00 80 1008.1
20260509101803 72 0 0.0 0.0 0.00 0.00 0.00 82 1008.1
20260509100903 72 90 0.0 3.0 0.00 0.00 0.00 82 1008.1
20260509100004 71 90 0.0 3.0 0.00 0.00 0.00 83 1008.1
20260509095404 70 0 0.0 0.0 0.00 0.00 0.00 83 1008.1
20260509094505 70 0 0.0 0.0 0.00 0.00 0.00 85 1008.1
20260509093603 69 0 0.0 0.0 0.00 0.00 0.00 86 1008.1
20260509092703 68 90 0.0 2.0 0.00 0.00 0.00 87 1008.1
20260509091803 68 0 0.0 0.0 0.00 0.00 0.00 89 1008.1
20260509090903 67 90 0.0 1.0 0.00 0.00 0.00 90 1008.1
20260509090213 66 90 0.0 3.0 0.00 0.00 0.00 90 1008.1
20260509085403 66 90 0.0 3.0 0.00 0.00 0.00 92 1009.1
20260509084505 65 0 0.0 0.0 0.00 0.00 0.00 92 1009.1
20260509083605 64 90 0.0 2.0 0.00 0.00 0.00 93 1009.1
20260509082703 64 90 1.0 1.0 0.00 0.00 0.00 94 1009.1
20260509081804 63 0 0.0 0.0 0.00 0.00 0.00 94 1009.1
20260509081113 63 0 0.0 0.0 0.00 0.00 0.00 95 1009.1
20260509080003 63 113 0.0 4.0 0.00 0.00 0.00 97 1009.1
20260509075616 63 116 0.0 4.0 0.00 0.00 0.00 98 1009.1
20260509074505 61 0 0.0 0.0 0.00 0.00 0.00 98 1009.1
20260509073603 60 0 0.0 0.0 0.00 0.00 0.00 98 1009.1
20260509072703 59 0 0.0 0.0 0.00 0.00 0.00 98 1009.1
20260509072013 59 0 0.0 0.0 0.00 0.00 0.00 98 1009.1
20260509070904 58 0 0.0 0.0 0.00 0.00 0.00 98 1009.1
20260509070005 58 0 0.0 0.0 0.00 0.00 0.00 98 1009.1
20260509065403 58 0 0.0 0.0 0.00 0.00 0.00 98 1009.1
20260509064505 58 90 0.0 1.0 0.00 0.00 0.00 98 1009.1
20260509063603 57 0 0.0 0.0 0.00 0.00 0.00 98 1009.1
20260509062705 57 0 0.0 0.0 0.00 0.00 0.00 98 1009.1
20260509061804 56 0 0.0 0.0 0.00 0.00 0.00 98 1009.1
20260509060903 56 0 0.0 0.0 0.00 0.00 0.00 98 1009.1
20260509060004 56 0 0.0 0.0 0.00 0.00 0.00 98 1009.1
20260509055403 56 0 0.0 0.0 0.00 0.00 0.00 98 1009.1
20260509054505 56 0 0.0 0.0 0.00 0.00 0.00 98 1009.1
20260509053603 56 0 0.0 0.0 0.00 0.00 0.00 98 1009.1
20260509052913 56 0 0.0 0.0 0.00 0.00 0.00 98 1009.1
20260509051803 55 0 0.0 0.0 0.00 0.00 0.00 98 1009.1
20260509050903 55 90 0.0 1.0 0.00 0.00 0.00 98 1009.1
20260509050003 55 0 0.0 0.0 0.00 0.00 0.00 98 1009.1
20260509045405 55 0 0.0 0.0 0.00 0.00 0.00 98 1009.1
20260509044505 55 0 0.0 0.0 0.00 0.00 0.00 98 1009.1
20260509043815 55 0 0.0 0.0 0.00 0.00 0.00 98 1009.1
20260509042704 54 0 0.0 0.0 0.00 0.00 0.00 98 1009.1
20260509041805 55 0 0.0 0.0 0.00 0.00 0.00 98 1009.1
20260509040903 55 0 0.0 0.0 0.00 0.00 0.00 98 1009.1
20260509040004 55 0 0.0 0.0 0.00 0.00 0.00 98 1009.1
20260509035403 55 0 0.0 0.0 0.00 0.00 0.00 98 1009.1
20260509034505 55 0 0.0 0.0 0.00 0.00 0.00 98 1009.1
20260509033603 55 0 0.0 0.0 0.00 0.00 0.00 98 1009.1
20260509032704 55 0 0.0 0.0 0.00 0.00 0.00 98 1009.1
20260509031804 55 0 0.0 0.0 0.00 0.00 0.00 98 1009.1
20260509031113 55 0 0.0 0.0 0.00 0.00 0.00 98 1009.1
20260509030003 55 0 0.0 0.0 0.00 0.00 0.00 97 1009.1
20260509025403 55 0 0.0 0.0 0.00 0.00 0.00 97 1009.1
20260509024506 56 0 0.0 0.0 0.00 0.00 0.00 97 1009.1
20260509023813 56 0 0.0 0.0 0.00 0.00 0.00 97 1009.1
20260509022703 56 0 0.0 0.0 0.00 0.00 0.00 97 1009.1
20260509021803 57 0 0.0 0.0 0.00 0.00 0.00 97 1009.1
20260509021115 57 0 0.0 0.0 0.00 0.00 0.00 97 1009.1
20260509020005 57 0 0.0 0.0 0.00 0.00 0.00 97 1009.1
20260509015403 57 0 0.0 0.0 0.00 0.00 0.00 97 1009.1
20260509014503 57 0 0.0 0.0 0.00 0.00 0.00 97 1009.1
20260509013814 57 0 0.0 0.0 0.00 0.00 0.00 97 1009.1
20260509012705 57 0 0.0 0.0 0.00 0.00 0.00 97 1009.1
20260509011803 57 0 0.0 0.0 0.00 0.00 0.00 96 1009.1
20260509010903 57 0 0.0 0.0 0.00 0.00 0.00 96 1009.1
20260509010005 57 0 0.0 0.0 0.00 0.00 0.00 96 1009.1
20260509005613 57 0 0.0 0.0 0.00 0.00 0.00 96 1009.1
20260509004505 58 0 0.0 0.0 0.00 0.00 0.00 96 1009.1
20260509003814 58 0 0.0 0.0 0.00 0.00 0.00 96 1009.1
20260509002705 58 0 0.0 0.0 0.00 0.00 0.00 96 1009.1
20260509001803 58 0 0.0 0.0 0.00 0.00 0.00 95 1009.1
20260509000903 58 0 0.0 0.0 0.00 0.00 0.00 95 1009.1
20260509000003 58 0 0.0 0.0 0.00 0.00 0.00 95 1009.1
20260508235405 58 0 0.0 0.0 0.00 0.00 0.00 94 1010.1
20260508234503 58 0 0.0 0.0 0.00 0.00 0.00 94 1010.1
20260508233815 58 0 0.0 0.0 0.00 0.00 0.00 94 1010.1
20260508232915 58 0 0.0 0.0 0.00 0.00 0.00 93 1010.1
20260508231803 58 0 0.0 0.0 0.00 0.00 0.00 93 1010.1
20260508230903 58 0 0.0 0.0 0.00 0.00 0.00 93 1010.1
20260508230005 58 0 0.0 0.0 0.00 0.00 0.00 92 1010.1
20260508225403 58 0 0.0 0.0 0.00 0.00 0.00 92 1010.1
20260508224716 58 0 0.0 0.0 0.00 0.00 0.00 91 1010.1
20260508223605 58 0 0.0 0.0 0.00 0.00 0.00 90 1010.1
20260508222703 58 0 0.0 0.0 0.00 0.00 0.00 90 1010.1
20260508221805 59 0 0.0 0.0 0.00 0.00 0.00 89 1011.1
20260508220904 59 0 0.0 0.0 0.00 0.00 0.00 88 1011.1
20260508220215 59 0 0.0 0.0 0.00 0.00 0.00 87 1011.1
20260508215614 59 0 0.0 0.0 0.00 0.00 0.62 87 1011.1
20260508214505 59 0 0.0 0.0 0.00 0.00 0.62 86 1011.1
20260508213603 59 0 0.0 0.0 0.00 0.00 0.62 84 1011.1
20260508212705 59 0 0.0 0.0 0.00 0.00 0.62 84 1011.1
20260508211803 59 0 0.0 0.0 0.00 0.00 0.62 83 1010.1
20260508210903 59 0 0.0 0.0 0.00 0.00 0.62 82 1010.1
20260508210003 59 0 0.0 0.0 0.00 0.00 0.62 82 1010.1
20260508205403 59 0 0.0 0.0 0.00 0.00 0.62 82 1010.1
20260508204505 59 0 0.0 0.0 0.00 0.00 0.62 81 1010.1
20260508203605 59 0 0.0 0.0 0.00 0.00 0.62 80 1010.1
20260508202703 59 0 0.0 0.0 0.00 0.00 0.62 79 1010.1
20260508201803 59 0 0.0 0.0 0.00 0.00 0.62 78 1010.1
20260508201112 60 0 0.0 0.0 0.00 0.00 0.62 77 1010.1
20260508200214 60 0 0.0 0.0 0.00 0.00 0.62 76 1010.1
20260508195403 60 0 0.0 0.0 0.00 0.00 0.62 75 1010.1
20260508194508 61 0 0.0 0.0 0.00 0.00 0.62 74 1010.1
20260508193814 62 0 0.0 0.0 0.00 0.00 0.62 74 1010.1
20260508192703 62 0 0.0 0.0 0.00 0.00 0.62 73 1010.1